This is the latest recevied weather packets stored in our database for station/object JA6CFI-13. If no packets are shown the sender has not sent any weather packets the latest 10 day(s).
| Time | Temp. | Humidity | Pressure | Rain* | Wind** | Luminosity | Snow |
|---|---|---|---|---|---|---|---|
| 1777966522 | 22.78° C | 50% | 1017.3 hPa | 0 mm | - | - | - |
| 1777965740 | 22.78° C | 50% | 1017.3 hPa | 0 mm | - | - | - |
| 1777965123 | 22.78° C | 51% | 1017.4 hPa | 0 mm | - | - | - |
| 1777964962 | 22.78° C | 52% | 1017.3 hPa | 0 mm | - | - | - |
| 1777964181 | 22.78° C | 52% | 1017.3 hPa | 0 mm | - | - | - |
| 1777963401 | 23.33° C | 52% | 1017.2 hPa | 0 mm | - | - | - |
| 1777963324 | 23.33° C | 52% | 1017.2 hPa | 0 mm | - | - | - |
| 1777962620 | 23.33° C | 48% | 1017.3 hPa | 0 mm | - | - | - |
| 1777961842 | 23.33° C | 51% | 1017.3 hPa | 0 mm | - | - | - |
| 1777961523 | 23.33° C | 52% | 1017.3 hPa | 0 mm | - | - | - |
| 1777961062 | 23.89° C | 50% | 1017.3 hPa | 0 mm | - | - | - |
| 1777960281 | 23.33° C | 50% | 1017.5 hPa | 0 mm | - | - | - |
| 1777959723 | 23.89° C | 49% | 1017.4 hPa | 0 mm | - | - | - |
| 1777959501 | 23.89° C | 48% | 1017.4 hPa | 0 mm | - | - | - |
| 1777958720 | 23.89° C | 47% | 1017.5 hPa | 0 mm | - | - | - |
| 1777957940 | 23.89° C | 45% | 1017.6 hPa | 0 mm | - | - | - |
| 1777957923 | 23.89° C | 45% | 1017.6 hPa | 0 mm | - | - | - |
| 1777957162 | 24.44° C | 44% | 1017.7 hPa | 0 mm | - | - | - |
| 1777956380 | 23.89° C | 45% | 1017.9 hPa | 0 mm | - | - | - |
| 1777956123 | 24.44° C | 46% | 1018 hPa | 0 mm | - | - | - |
| 1777955601 | 23.89° C | 45% | 1018 hPa | 0 mm | - | - | - |
| 1777954820 | 23.89° C | 45% | 1018.1 hPa | 0 mm | - | - | - |
| 1777954323 | 23.89° C | 44% | 1018.2 hPa | 0 mm | - | - | - |
| 1777954042 | 24.44° C | 43% | 1018.3 hPa | 0 mm | - | - | - |
| 1777953261 | 23.89° C | 46% | 1018.5 hPa | 0 mm | - | - | - |
* Rain latest hour (hover to see other rain measurements)
** Current wind speed in m/s (hover to see current wind gust speed)